Grand Junction, CO

9:23 AM MDT on August 20, 2019 (GMT -0600)
Walker

Weather History for KGJT - May, 2019

Change the Weather History Date:

Sunday, May 5, 2019

  Actual Average Record
Temperature  
Mean Temperature 60 °F 58 °F  
Max Temperature 79 °F 72 °F 90 °F (2000)
Min Temperature 41 °F 44 °F 32 °F (1991)
Degree Days  
Heating Degree Days 5 8  
Month to date heating degree days 62 41  
Since 1 July heating degree days 5459 5475  
Cooling Degree Days 0 1  
Month to date cooling degree days 0 2  
Year to date cooling degree days 1 5  
Growing Degree Days 11 (Base 50)    
Moisture  
Dew Point 36 °F    
Average Humidity 48    
Maximum Humidity 79    
Minimum Humidity 16    
Precipitation  
Precipitation 0.01 in 0.03 in 0.54 in (1961)
Month to date precipitation 0.04 0.16  
Year to date precipitation 5.09 3.11  
Snow  
Snow 0.00 in 0.00 in 1.20 in (1975)
Month to date snowfall 0.0 0.0  
Since 1 July snowfall 17.4 19.0  
Snow Depth 0.00 in    
Sea Level Pressure  
Sea Level Pressure 29.75 in    
Wind  
Wind Speed 7 mph (ESE)    
Max Wind Speed 26 mph    
Max Gust Speed 35 mph    
Visibility 10 miles    
Events Rain , Thunderstorm    
T = Trace of Precipitation, MM = Missing Value Source: NWS Daily Summary

Daily Weather History Graph

Daily Weather History Graph

Search for Another Location

Airport or City:

Astronomy

May. 05, 2019 Rise Set
Actual Time 6:11 AM MDT 8:10 PM MDT
Civil Twilight 5:42 AM MDT 8:40 PM MDT
Nautical Twilight 5:06 AM MDT 9:15 PM MDT
Astronomical Twilight 4:28 AM MDT 9:54 PM MDT
Moon 6:57 AM MDT (5/5) 9:07 PM MDT (5/5)
Length of Visible Light 14h 58m
Length of Day
13h 59m
New Moon, 1% of the Moon is Illuminated
May 5
New Moon
May 11
First Quarter
May 18
Full
May 26
Last Quarter
Jun 3
New

Hourly Weather History & Observations

Time (MDT) Temp. Windchill Dew Point Humidity Pressure Visibility Wind Dir Wind Speed Gust Speed Precip Events Conditions
12:53 AM 53.1 °F - 37.9 °F 57% 29.78 in 10.0 mi East 6.9 mph - N/A   Clear
1:53 AM 51.1 °F - 37.0 °F 59% 29.77 in 10.0 mi Calm Calm - N/A   Clear
2:53 AM 46.0 °F 44.8 °F 37.0 °F 71% 29.78 in 10.0 mi NE 3.5 mph - N/A   Clear
3:53 AM 46.0 °F 44.8 °F 37.0 °F 71% 29.78 in 10.0 mi East 3.5 mph - N/A   Clear
4:53 AM 41.0 °F 37.1 °F 36.0 °F 82% 29.79 in 10.0 mi East 5.8 mph - N/A   Clear
5:53 AM 46.0 °F 41.9 °F 35.1 °F 66% 29.78 in 10.0 mi SE 8.1 mph - N/A   Clear
6:53 AM 46.0 °F 41.4 °F 36.0 °F 68% 29.81 in 10.0 mi East 9.2 mph - N/A   Clear
7:53 AM 54.0 °F - 37.0 °F 53% 29.81 in 10.0 mi ESE 8.1 mph - N/A   Clear
8:53 AM 57.9 °F - 36.0 °F 44% 29.81 in 10.0 mi ESE 5.8 mph - N/A   Clear
9:53 AM 62.1 °F - 37.0 °F 39% 29.80 in 10.0 mi ESE 5.8 mph - N/A   Clear
10:53 AM 66.0 °F - 36.0 °F 33% 29.77 in 10.0 mi East 4.6 mph - N/A   Clear
11:53 AM 69.1 °F - 34.0 °F 27% 29.75 in 10.0 mi Calm Calm - N/A   Clear
12:53 PM 72.0 °F - 32.0 °F 23% 29.73 in 10.0 mi WNW 5.8 mph - N/A   Clear
1:53 PM 73.0 °F - 30.9 °F 21% 29.70 in 10.0 mi North - - N/A   Clear
2:53 PM 73.9 °F - 34.0 °F 23% 29.68 in 10.0 mi West 9.2 mph 16.1 mph N/A   Clear
3:53 PM 75.0 °F - 33.1 °F 22% 29.65 in 10.0 mi NNW 9.2 mph 17.3 mph N/A   Clear
4:53 PM 78.1 °F - 28.0 °F 16% 29.65 in 10.0 mi WSW 9.2 mph 20.7 mph N/A   Scattered Clouds
5:32 PM 73.9 °F - 33.1 °F 22% 29.79 in 10.0 mi SSE 15.0 mph - N/A   Overcast
5:53 PM 71.1 °F - 33.1 °F 25% 29.66 in 10.0 mi SSE 15.0 mph - N/A   Mostly Cloudy
6:11 PM 66.0 °F - 39.9 °F 38% 29.81 in 9.0 mi South 18.4 mph 32.2 mph N/A Rain , Thunderstorm Light Thunderstorms and Rain
6:29 PM 64.0 °F - 41.0 °F 43% 29.85 in 10.0 mi SW 16.1 mph 29.9 mph N/A Rain , Thunderstorm Light Thunderstorms and Rain
6:53 PM 64.9 °F - 39.9 °F 40% 29.73 in 10.0 mi NW 9.2 mph - 0.01 in   Overcast
7:53 PM 63.0 °F - 43.0 °F 48% 29.72 in 10.0 mi NNW 6.9 mph - N/A   Clear
8:53 PM 60.1 °F - 44.1 °F 55% 29.75 in 10.0 mi ENE 5.8 mph - N/A   Clear
9:53 PM 60.1 °F - 39.0 °F 46% 29.76 in 10.0 mi NE 16.1 mph - N/A   Mostly Cloudy
10:53 PM 57.9 °F - 39.0 °F 49% 29.76 in 10.0 mi NE 11.5 mph - N/A   Clear
11:53 PM 55.9 °F - 39.9 °F 55% 29.77 in 10.0 mi SE 6.9 mph - N/A   Clear